Temperature
5 5 5 5 4 4 4 4 4 4 3 3 3 3 3 3 3 3 3 3 2 2 2 2 2 2 2 2 2 1 1 1 1 1 1 1 2 2 2 2 2 2 2
4 4 4 4 4 4 4 4 4 3 3 3 3 3 3 3 2 2 2 2 2 2 2 2 2 2 2 1 1 1 1 1 0 1 1 1 1 1 1 1 2 2 2
4 4 4 4 4 4 3 3 3 3 3 3 3 3 3 2 2 2 2 2 2 2 1 1 1 1 1 1 1 1 1 1 0 0 0 0 1 1 1 1 1 1 1
4 4 3 3 3 3 3 3 3 3 3 2 2 2 2 2 2 2 1 1 1 1 1 1 1 1 1 1 1 1 0 0 0 -0 -0 -0 0 0 0 0 1 1 1
3 3 3 3 3 3 3 3 3 2 2 2 2 2 2 2 1 1 1 1 1 1 1 1 1 0 0 0 0 0 -0 -0 -0 -0 -0 -0 -0 -0 -0 -0 -0 -0 0
3 3 2 2 2 2 2 2 2 2 2 2 2 2 2 1 1 1 1 0 0 0 0 0 0 -0 -0 -0 -0 -0 -1 -1 -1 -1 -1 -1 -1 -1 -1 -1 -1 -1 -1
2 2 2 2 2 2 2 2 2 2 2 2 1 1 1 1 1 0 0 -0 -0 -0 -0 -0 -0 -0 -0 -1 -1 -1 -1 -1 -1 -1 -1 -1 -1 -1 -1 -1 -1 -1 -1
2 2 1 1 1 1 1 1 1 1 1 1 1 1 1 0 0 -0 -0 -0 -1 -1 -1 -1 -1 -1 -1 -1 -1 -1 -1 -1 -1 -1 -1 -1 -1 -1 -1 -2 -2 -1 -1
2 1 1 1 1 1 1 1 1 1 1 1 1 0 0 -0 -0 -1 -1 -1 -1 -1 -1 -1 -1 -1 -1 -1 -1 -1 -1 -1 -1 -1 -2 -2 -2 -2 -2 -2 -2 -2 -2
1 1 1 1 1 1 0 0 0 0 0 0 0 -0 -0 -0 -1 -1 -1 -1 -1 -1 -1 -1 -1 -1 -1 -2 -2 -2 -2 -2 -2 -2 -2 -2 -2 -2 -2 -2 -2 -2 -2
1 1 0 0 0 0 -0 -0 -0 -0 -0 -0 -1 -1 -1 -1 -1 -1 -1 -2 -1 -1 -1 -1 -1 -1 -1 -2 -2 -2 -2 -2 -2 -2 -2 -2 -2 -2 -2 -2 -2 -2 -2
0 0 -0 -0 -0 -0 -1 -1 -1 -1 -1 -1 -1 -1 -1 -1 -1 -1 -2 -2 -2 -2 -2 -2 -2 -2 -2 -2 -2 -2 -2 -2 -2 -3 -3 -3 -3 -2 -2 -2 -2 -2 -2
-0 -0 -1 -1 -1 -1 -1 -1 -1 -2 -2 -2 -2 -2 -2 -2 -2 -2 -2 -2 -2 -2 -2 -2 -2 -2 -2 -2 -2 -2 -3 -3 -3 -3 -3 -3 -3 -3 -3 -3 -2 -2 -2
-1 -1 -1 -1 -1 -1 -1 -1 -2 -2 -2 -2 -2 -2 -2 -2 -2 -2 -2 -2 -2 -2 -2 -2 -2 -2 -2 -2 -3 -3 -3 -3 -3 -3 -3 -3 -3 -3 -3 -3 -3 -3 -3
-1 -1 -1 -2 -2 -2 -2 -2 -2 -2 -2 -2 -2 -2 -3 -2 -2 -2 -3 -3 -3 -3 -3 -2 -3 -3 -3 -3 -3 -3 -3 -3 -3 -3 -4 -4 -4 -3 -3 -3 -3 -3 -3
-1 -2 -2 -2 -2 -2 -2 -2 -2 -2 -2 -2 -2 -3 -3 -3 -3 -3 -3 -3 -3 -3 -3 -3 -3 -3 -3 -3 -3 -3 -3 -3 -3 -4 -4 -4 -4 -4 -4 -4 -4 -4 -4
-2 -2 -2 -2 -2 -2 -2 -2 -2 -2 -2 -2 -3 -3 -3 -3 -3 -3 -3 -3 -3 -3 -3 -3 -3 -4 -3 -3 -3 -3 -3 -3 -4 -4 -4 -4 -4 -4 -4 -4 -4 -4 -4
-2 -2 -2 -3 -3 -3 -3 -3 -3 -3 -3 -2 -3 -3 -3 -3 -3 -3 -3 -3 -3 -3 -3 -4 -4 -4 -4 -4 -4 -4 -4 -4 -4 -4 -4 -4 -4 -4 -4 -4 -4 -5 -5
-2 -3 -3 -3 -3 -3 -3 -3 -3 -3 -3 -3 -3 -3 -3 -3 -3 -3 -3 -3 -3 -4 -4 -4 -4 -4 -4 -4 -4 -4 -4 -4 -4 -4 -4 -4 -4 -4 -4 -5 -5 -5 -5
-3 -3 -3 -3 -3 -3 -3 -3 -3 -3 -3 -4 -4 -4 -4 -4 -4 -4 -4 -4 -4 -4 -4 -4 -4 -4 -4 -4 -4 -4 -4 -4 -4 -4 -4 -5 -5 -5 -5 -5 -5 -5 -5
-3 -3 -3 -3 -3 -3 -3 -3 -4 -4 -4 -4 -4 -4 -4 -4 -4 -4 -4 -4 -4 -4 -4 -4 -5 -5 -4 -5 -5 -5 -5 -5 -5 -5 -5 -5 -5 -5 -5 -5 -5 -5 -5
-3 -3 -3 -3 -3 -3 -3 -4 -4 -4 -4 -4 -4 -4 -4 -4 -4 -4 -4 -4 -4 -5 -5 -5 -5 -5 -5 -5 -5 -5 -5 -5 -5 -5 -5 -5 -5 -5 -5 -5 -5 -5 -5
-3 -3 -4 -4 -4 -4 -4 -4 -4 -4 -4 -4 -4 -5 -5 -5 -5 -5 -5 -5 -5 -5 -5 -5 -5 -5 -5 -5 -5 -5 -5 -5 -5 -5 -5 -6 -5 -5 -5 -5 -5 -6 -5
-4 -4 -4 -4 -4 -4 -4 -4 -4 -4 -5 -5 -5 -5 -5 -5 -5 -5 -5 -5 -5 -5 -5 -5 -5 -5 -5 -5 -5 -5 -5 -5 -6 -6 -6 -6 -6 -6 -6 -6 -6 -6 -6
-4 -4 -4 -4 -4 -4 -4 -4 -5 -5 -5 -5 -5 -5 -5 -5 -5 -5 -5 -5 -5 -5 -5 -5 -5 -5 -5 -5 -5 -6 -6 -6 -6 -6 -6 -6 -6 -6 -6 -6 -6 -6 -6
-4 -4 -4 -4 -4 -4 -4 -5 -5 -5 -5 -5 -5 -5 -5 -5 -5 -5 -5 -5 -5 -5 -6 -6 -6 -6 -6 -6 -6 -6 -6 -6 -6 -6 -6 -6 -6 -6 -6 -6 -6 -6 -6
Wind_Speed
4 3 3 4 4 4 3 4 3 3 3 3 4 4 4 4 4 4 4 4 4 4 4 4 5 4 3 3 3 3 3 4 6 5 3 3 3 3 4 5 6 6 7
3 3 3 3 3 4 4 4 3 3 3 4 4 4 4 4 4 4 5 5 5 5 5 4 5 4 5 3 3 4 4 4 5 6 4 3 3 3 3 4 4 6 6
2 2 2 2 3 3 4 4 4 4 4 4 4 4 4 4 5 5 5 5 5 5 5 5 5 5 6 4 4 4 4 4 4 4 4 3 3 3 3 4 4 4 6
2 2 2 2 3 3 3 3 3 4 4 4 4 4 4 4 5 5 5 5 5 5 5 5 6 6 6 6 5 5 4 4 4 3 4 3 3 3 2 3 4 4 5
2 3 3 2 2 2 2 3 3 3 4 4 3 4 4 4 4 4 5 5 5 5 5 6 6 7 8 7 5 5 4 4 4 4 4 3 3 2 3 3 4 5 5
3 3 2 2 2 2 3 3 3 3 3 3 3 3 4 4 5 6 5 5 5 5 5 5 6 6 7 8 9 7 6 6 5 5 5 5 5 4 3 3 3 4 4
3 2 2 2 2 3 3 3 3 3 3 3 4 4 4 5 7 7 7 5 5 5 5 5 5 5 6 5 7 8 7 8 8 6 6 6 5 5 4 4 4 4 5
3 2 2 2 2 2 3 3 3 3 3 3 4 4 4 5 7 8 7 6 5 5 5 5 5 5 5 5 5 6 6 6 7 6 5 6 5 5 5 5 6 5 5
3 3 3 3 3 3 3 3 3 2 3 3 3 4 4 5 7 8 7 4 4 5 5 5 5 5 7 7 5 6 6 5 6 7 7 6 7 7 5 3 3 4 5
4 3 3 3 3 3 3 3 3 3 3 3 4 4 4 4 7 7 6 4 4 4 4 5 6 7 7 7 6 6 6 6 4 4 5 5 5 5 5 4 4 4 4
3 2 3 3 3 3 3 2 2 3 3 3 3 4 4 5 6 7 7 4 4 4 4 4 5 7 8 8 6 5 7 5 4 4 4 4 3 3 3 4 4 4 4
2 3 3 3 3 2 2 2 2 3 3 3 3 4 3 4 5 6 7 6 5 4 4 4 5 7 7 8 6 6 7 5 3 3 3 4 3 3 3 4 4 5 5
3 3 3 2 2 3 3 3 3 3 3 3 3 3 4 3 4 7 7 7 7 4 4 6 6 6 6 5 6 6 5 3 3 3 4 4 3 3 2 3 3 3 4
3 3 2 2 2 3 3 3 3 3 3 3 3 3 3 3 3 3 3 4 5 4 4 5 6 5 4 4 4 3 3 3 3 4 3 3 2 2 2 2 2 2 3
3 3 2 2 3 3 3 3 4 4 5 4 3 3 4 4 4 5 3 3 2 2 2 2 2 2 2 2 2 2 2 2 3 2 2 2 2 2 2 2 2 2 2
3 3 3 2 2 2 2 3 4 5 5 5 5 5 4 5 6 5 5 5 5 4 2 2 3 3 3 3 3 2 2 2 2 2 2 3 2 2 2 2 2 2 3
4 3 3 3 3 3 3 3 3 3 4 5 5 5 5 5 5 5 5 4 4 3 2 2 3 3 2 2 2 2 2 2 2 2 2 2 2 2 2 2 2 2 3
4 4 3 3 3 3 3 3 3 3 3 3 3 4 4 4 4 3 3 1 2 2 2 2 2 2 2 2 2 2 2 1 1 1 1 2 2 2 2 2 2 3 3
3 3 3 3 3 3 3 3 3 3 3 2 2 2 3 3 2 2 1 1 1 2 2 2 2 2 1 2 2 2 2 1 1 1 1 2 2 2 2 2 3 4 3
3 4 3 3 2 2 2 3 3 2 2 2 2 2 1 1 1 1 1 1 1 2 1 1 1 1 1 1 1 1 2 1 1 1 1 2 2 2 2 3 3 3 3
2 3 4 2 2 2 3 3 3 2 2 2 2 2 2 1 1 1 1 1 1 2 1 1 1 1 1 1 1 2 2 2 2 2 2 2 2 2 2 2 3 3 3
2 2 2 2 2 2 3 2 2 2 2 2 2 2 3 1 1 1 1 1 1 1 1 1 1 1 1 2 2 2 2 2 2 2 2 1 1 2 2 2 2 2 3
2 2 2 2 2 3 2 2 2 2 2 2 2 1 1 1 1 1 1 1 1 1 1 0 1 1 1 1 2 2 2 2 2 2 2 1 1 2 2 2 2 3 3
2 2 2 2 2 2 2 2 2 2 2 2 2 2 1 1 1 1 1 1 1 1 1 1 1 1 1 1 1 1 2 2 1 2 2 2 2 2 2 2 2 3 3
2 2 2 2 2 2 2 2 2 2 2 2 2 1 1 1 1 1 1 0 1 1 1 1 1 1 1 1 1 1 1 0 0 0 1 1 1 2 2 2 2 3 2
2 2 2 2 2 2 2 2 2 2 2 2 1 1 1 1 1 1 0 0 1 1 1 1 1 1 1 1 1 1 1 1 0 0 1 1 1 1 1 1 2 2 2
Wind_Direction
192 200 199 199 195 194 200 207 205 204 200 205 207 207 208 212 216 216 221 226 229 232 236 235 239 238 234 226 227 237 244 246 261 279 280 281 268 276 285 277 281 279 278
189 197 202 203 195 195 203 209 208 210 210 212 213 212 215 217 218 221 224 228 227 229 231 230 238 243 240 233 229 235 241 247 254 270 279 283 271 265 274 283 283 282 277
177 191 205 210 204 207 210 209 210 217 214 213 215 218 219 219 220 224 226 232 231 230 229 226 230 232 237 236 235 235 240 253 255 260 274 284 290 291 295 293 289 281 281
172 190 206 217 217 221 222 217 219 222 223 220 219 223 223 223 223 227 229 234 234 234 233 228 225 226 228 230 234 230 234 244 252 259 269 279 286 292 289 299 301 291 294
185 201 215 220 227 232 242 240 237 238 237 228 223 228 231 227 230 231 230 236 236 236 237 233 229 226 229 231 235 229 225 233 245 252 261 276 275 291 284 288 291 302 297
193 211 215 218 237 241 244 246 242 246 246 239 234 233 238 242 244 242 241 239 237 235 240 242 236 227 233 241 244 242 235 233 236 238 250 256 264 273 280 282 291 302 297
188 201 208 214 230 239 242 244 240 239 242 243 244 242 247 248 249 250 249 240 236 236 237 241 246 238 232 234 241 247 249 249 246 238 241 248 256 258 263 272 277 282 283
188 201 208 215 230 238 242 245 252 242 238 241 244 245 252 251 252 253 254 242 239 239 237 238 240 242 232 226 230 238 242 245 249 243 237 244 252 250 242 252 265 280 286
203 211 212 213 227 237 247 252 257 252 248 252 252 251 253 256 256 257 255 243 240 243 242 241 240 242 239 228 227 235 246 253 261 262 268 270 273 272 270 265 273 282 289
215 215 215 217 222 231 245 257 261 259 256 260 265 258 251 256 261 263 259 239 238 244 248 247 246 246 247 234 226 227 240 246 248 259 265 272 268 268 267 246 240 254 274
205 211 220 224 227 232 244 253 261 263 261 257 266 268 257 258 262 261 258 242 234 238 244 247 248 252 251 247 240 232 240 246 239 242 249 257 259 256 252 254 246 244 254
193 212 224 226 226 223 230 248 246 249 254 254 264 277 272 261 262 263 259 253 251 241 246 249 251 254 252 248 246 245 248 251 238 238 246 253 261 264 262 265 266 258 252
196 214 223 227 228 219 219 231 240 243 248 250 252 265 275 270 261 264 265 262 254 250 249 253 254 252 255 250 248 247 241 234 231 239 247 253 257 259 266 278 281 282 283
204 218 215 223 235 231 228 225 233 239 245 249 250 260 270 274 268 260 257 261 257 257 258 257 255 259 259 251 248 247 236 230 231 235 245 256 262 264 273 278 285 294 298
209 217 220 226 234 236 238 237 238 239 241 246 246 244 250 260 264 271 264 251 237 241 247 252 250 252 245 243 240 235 234 232 236 229 235 249 263 272 280 282 274 288 284
211 216 221 223 231 234 245 275 266 253 261 259 257 257 262 269 275 273 270 266 259 241 228 228 238 235 234 235 236 236 233 230 224 229 232 237 250 263 277 287 282 282 284
213 220 222 223 229 235 241 244 269 286 273 267 263 266 270 277 273 271 270 268 253 234 234 237 238 234 228 227 227 228 233 231 216 221 234 239 249 259 272 280 282 284 285
214 225 225 224 226 232 236 237 239 251 274 284 277 270 276 278 278 276 265 269 259 235 235 241 239 233 221 221 224 223 223 216 211 224 240 247 246 251 263 269 271 276 287
211 215 220 225 229 233 233 233 238 243 252 270 295 292 290 288 277 273 229 216 247 253 245 245 240 230 221 219 222 214 210 214 217 228 242 254 253 247 257 266 271 281 280
215 221 221 223 229 231 229 230 233 235 247 251 256 271 285 290 290 279 247 257 255 261 259 259 249 230 222 221 216 213 207 205 208 226 239 253 260 256 253 258 263 272 274
213 217 217 221 222 229 231 229 224 226 240 245 253 255 252 229 246 255 254 264 261 257 256 257 250 234 226 228 219 217 204 210 212 219 232 246 255 263 262 262 268 275 281
204 206 210 211 215 224 231 222 218 222 231 237 254 257 246 252 240 256 268 278 284 271 249 234 246 239 229 226 219 214 204 212 222 223 233 243 250 262 269 272 281 284 285
198 202 211 216 213 225 230 218 213 219 224 227 225 228 229 238 248 259 272 289 301 316 321 280 244 253 268 256 233 216 207 218 224 223 227 234 242 257 264 267 271 277 281
197 201 204 208 209 214 217 212 208 214 212 214 221 222 224 236 253 266 274 289 298 320 316 287 258 240 246 263 248 223 216 223 222 217 206 222 241 253 261 266 271 277 276
193 198 200 203 210 214 208 204 207 211 213 215 224 236 238 246 258 258 271 288 298 326 330 309 272 236 224 245 250 241 216 200 274 203 188 214 233 249 258 260 268 278 279
190 194 196 201 211 212 202 204 211 209 213 218 219 232 237 244 257 257 268 283 299 297 304 308 287 250 235 230 207 190 193 203 117 47 161 199 221 255 273 271 278 283 287
Height
1450 1451 1452 1452 1453 1454 1455 1455 1456 1456 1457 1457 1457 1458 1458 1458 1459 1459 1459 1459 1459 1459 1459 1460 1460 1460 1461 1460 1461 1461 1461 1461 1459 1457 1458 1457 1456 1456 1455 1454 1453 1451 1450
1447 1448 1448 1449 1450 1450 1451 1451 1452 1452 1452 1453 1453 1454 1454 1454 1454 1455 1454 1455 1454 1454 1455 1455 1455 1456 1456 1456 1456 1456 1457 1457 1456 1454 1453 1453 1452 1451 1450 1449 1448 1447 1446
1444 1444 1445 1445 1446 1446 1447 1447 1448 1448 1448 1449 1449 1449 1450 1450 1450 1450 1450 1450 1450 1450 1450 1450 1451 1451 1451 1451 1451 1451 1452 1452 1452 1451 1449 1449 1448 1447 1446 1445 1444 1443 1442
1440 1441 1441 1441 1442 1442 1443 1443 1444 1444 1444 1445 1445 1445 1445 1445 1446 1446 1446 1446 1445 1445 1445 1446 1446 1446 1446 1447 1447 1447 1447 1447 1447 1446 1445 1445 1444 1443 1442 1441 1439 1438 1437
1437 1437 1437 1438 1438 1439 1439 1439 1440 1440 1441 1441 1441 1441 1441 1441 1441 1441 1441 1441 1441 1440 1440 1441 1441 1441 1441 1442 1442 1442 1442 1442 1442 1442 1441 1440 1440 1439 1438 1437 1436 1434 1432
1433 1433 1434 1434 1434 1435 1435 1435 1436 1436 1436 1437 1437 1437 1437 1437 1437 1437 1437 1436 1436 1436 1435 1436 1436 1436 1436 1436 1437 1438 1438 1438 1438 1438 1437 1436 1436 1435 1435 1434 1433 1431 1428
1429 1430 1430 1430 1431 1431 1431 1431 1432 1432 1432 1432 1432 1433 1432 1433 1433 1433 1432 1432 1431 1431 1431 1431 1431 1431 1431 1432 1432 1433 1433 1433 1434 1434 1433 1432 1432 1431 1431 1430 1429 1428 1426
1426 1426 1427 1427 1427 1427 1427 1427 1428 1428 1428 1428 1428 1428 1428 1428 1428 1428 1428 1427 1427 1426 1426 1426 1426 1426 1426 1427 1427 1428 1428 1428 1429 1429 1429 1428 1429 1428 1428 1427 1426 1425 1423
1422 1423 1423 1423 1423 1423 1423 1423 1424 1424 1423 1424 1424 1423 1423 1423 1423 1423 1423 1422 1421 1421 1421 1422 1422 1422 1422 1423 1423 1423 1423 1424 1424 1425 1425 1424 1425 1424 1424 1423 1422 1421 1418
1419 1419 1420 1420 1420 1420 1420 1420 1420 1420 1419 1419 1419 1419 1419 1419 1419 1418 1418 1417 1417 1416 1417 1417 1417 1417 1418 1418 1418 1418 1418 1418 1419 1419 1420 1420 1420 1420 1420 1419 1418 1417 1415
1415 1416 1416 1416 1416 1416 1416 1416 1416 1416 1416 1415 1415 1415 1415 1414 1414 1414 1413 1413 1413 1412 1412 1412 1412 1413 1413 1413 1414 1414 1414 1415 1415 1415 1414 1415 1415 1415 1415 1414 1414 1414 1412
1412 1412 1412 1413 1413 1413 1413 1413 1413 1413 1412 1412 1411 1411 1411 1410 1410 1410 1409 1409 1409 1409 1408 1408 1408 1408 1408 1409 1409 1410 1411 1411 1411 1410 1410 1410 1410 1410 1410 1410 1410 1409 1409
1408 1408 1408 1409 1409 1409 1409 1409 1409 1409 1409 1408 1408 1407 1407 1407 1406 1406 1406 1405 1405 1405 1404 1404 1405 1404 1404 1405 1405 1406 1406 1407 1406 1406 1406 1406 1406 1406 1406 1406 1406 1405 1405
1404 1404 1405 1405 1405 1405 1406 1406 1406 1405 1405 1405 1404 1404 1403 1403 1403 1402 1402 1402 1402 1401 1401 1401 1401 1401 1401 1401 1401 1402 1402 1402 1403 1403 1402 1403 1403 1403 1402 1402 1401 1401 1400
1400 1401 1401 1401 1402 1402 1402 1402 1402 1402 1402 1402 1401 1401 1400 1399 1399 1399 1399 1398 1398 1398 1398 1398 1397 1397 1397 1397 1397 1398 1398 1399 1399 1399 1399 1399 1399 1399 1399 1399 1398 1398 1397
1396 1397 1397 1398 1398 1399 1398 1399 1399 1399 1399 1399 1398 1398 1397 1397 1396 1396 1396 1395 1395 1395 1395 1394 1394 1394 1393 1394 1394 1394 1395 1395 1396 1396 1396 1396 1396 1396 1395 1396 1395 1395 1394
1393 1393 1394 1395 1395 1395 1395 1395 1395 1395 1395 1395 1395 1394 1394 1393 1393 1392 1392 1392 1392 1392 1391 1391 1391 1391 1391 1391 1391 1391 1392 1392 1393 1393 1393 1393 1393 1393 1393 1393 1392 1392 1391
1389 1390 1391 1391 1391 1392 1392 1392 1392 1391 1391 1390 1391 1390 1390 1390 1389 1389 1389 1389 1388 1388 1388 1388 1388 1388 1388 1388 1388 1389 1389 1389 1389 1390 1390 1390 1390 1390 1390 1390 1390 1389 1389
1386 1386 1387 1388 1388 1388 1388 1389 1389 1388 1388 1387 1387 1387 1387 1386 1386 1386 1386 1386 1385 1385 1385 1385 1385 1385 1385 1385 1385 1386 1386 1386 1387 1387 1387 1388 1388 1388 1388 1388 1387 1387 1386
1382 1383 1384 1384 1384 1385 1385 1385 1385 1385 1385 1384 1384 1383 1384 1383 1383 1383 1383 1383 1383 1383 1382 1382 1382 1382 1382 1382 1383 1383 1383 1384 1384 1385 1385 1385 1385 1385 1385 1385 1385 1384 1383
1379 1379 1380 1381 1381 1381 1381 1381 1382 1382 1381 1381 1381 1381 1381 1381 1381 1381 1381 1381 1380 1380 1380 1380 1380 1379 1379 1380 1380 1380 1381 1381 1382 1382 1382 1383 1383 1383 1382 1382 1382 1382 1381
1376 1376 1377 1377 1377 1378 1378 1378 1378 1379 1378 1378 1378 1378 1379 1379 1379 1379 1378 1378 1378 1378 1378 1378 1377 1377 1377 1377 1378 1378 1378 1379 1379 1379 1380 1380 1380 1380 1380 1380 1380 1379 1379
1373 1373 1373 1374 1374 1374 1375 1375 1375 1376 1376 1376 1375 1376 1376 1376 1376 1376 1376 1376 1376 1376 1376 1376 1375 1375 1375 1375 1376 1376 1376 1376 1377 1377 1377 1377 1378 1378 1378 1378 1377 1377 1376
1370 1370 1370 1370 1371 1371 1371 1372 1372 1373 1373 1373 1373 1373 1373 1374 1374 1374 1374 1374 1374 1374 1373 1373 1373 1373 1373 1373 1373 1374 1374 1375 1375 1375 1375 1376 1376 1376 1376 1375 1375 1375 1375
1366 1367 1367 1367 1368 1368 1368 1369 1369 1370 1370 1370 1371 1371 1371 1371 1371 1371 1371 1371 1371 1371 1371 1371 1371 1371 1371 1371 1372 1372 1372 1373 1373 1373 1374 1374 1374 1374 1374 1373 1373 1373 1373
1364 1364 1364 1365 1365 1365 1366 1366 1366 1367 1367 1368 1368 1368 1369 1369 1369 1369 1369 1369 1369 1369 1369 1369 1369 1369 1369 1369 1370 1370 1370 1371 1371 1372 1372 1372 1372 1372 1372 1372 1372 1372 1371